Flag for U.S.A. Weather past 2 weeks in Gainesville, Florida, U.S.A.

Now
73 °F

Light rain. Partly sunny.


Feels Like: 70 °F
Forecast: 62 / 73 °F
Wind: 5 mph from Southeast

Location: Gainesville Regional Airport


UV Index: 0 (Low)

Visibility: 9 mi


Pressure: 29.96 "Hg

Humidity: 94%

Dew point: 71 °F

Location of GainesvilleLocation

Historic Weather in Gainesville

°F

Gainesville temperature yesterday

Maximum temperature yesterday: 74 °F (at 1:53 PM)
Minimum temperature yesterday: 53 °F (at 12:01 AM)
Average temperature yesterday: 63 °F

Past Weeks' High & Low Weather Summary

 TemperatureHumidityPressure
High86 °F (Apr 7, 1:53 PM)100% (Apr 4, 7:53 AM)30.31 "Hg (Apr 4, 7:53 AM)
Low42 °F (Apr 16, 6:53 AM)32% (Apr 10, 3:53 PM)29.69 "Hg (Apr 8, 4:53 AM)
Average68 °F74%30.04 "Hg
* Reported Apr 3 3:53 PM — Apr 18 3:53 PM, Gainesville, Weather by CustomWeather, © 2014

Note: Actual official high and low records may vary slightly from our data, if they occured in-between our weather recording intervals... More about our weather records

Advertising

Historic Weather Conditions — Data for Previous 24 hours

 ConditionsComfort  
Time TempWeatherWind HumidityBarometerVisibility
3:53 PM
Apr 18
73 °FLight rain. Partly sunny.5 mph94%29.96 "Hg9 mi
2:53 PM72 °FLight rain. Cloudy.3 mph97%29.98 "Hg9 mi
1:53 PM72 °FLight rain. Fog.7 mph93%30.00 "Hg6 mi
1:00 PM71 °FLight rain. Mostly cloudy.12 mph93%30.01 "Hg9 mi
11:53 AM70 °FLight rain. Fog.8 mph93%30.02 "Hg5 mi
11:03 AM69 °FOvercast.7 mph87%30.04 "Hg10 mi
9:53 AM67 °FMostly cloudy.6 mph90%30.06 "Hg10 mi
8:53 AM66 °FLight rain. Partly sunny.7 mph87%30.08 "Hg8 mi
7:53 AM65 °FLight rain. Mostly cloudy.8 mph91%30.09 "Hg10 mi
6:53 AM65 °FPassing clouds.10 mph87%30.07 "Hg10 mi
5:53 AM65 °FOvercast.10 mph87%30.07 "Hg10 mi
4:53 AM65 °FOvercast.9 mph87%30.09 "Hg10 mi
3:53 AM64 °FPassing clouds.8 mph94%30.11 "Hg10 mi
2:53 AM63 °FClear.10 mph93%30.14 "Hg9 mi
1:53 AM63 °FPassing clouds.6 mph93%30.17 "Hg9 mi
12:53 AM63 °FPassing clouds.5 mph93%30.19 "Hg10 mi
11:53 PM
Apr 17
63 °FPassing clouds.8 mph93%30.18 "Hg10 mi
10:53 PM63 °FPassing clouds.10 mph90%30.19 "Hg10 mi
9:53 PM64 °FMostly cloudy.10 mph87%30.22 "Hg10 mi
8:53 PM65 °FCloudy.9 mph85%30.22 "Hg10 mi
7:53 PM68 °FMostly cloudy.10 mph76%30.21 "Hg10 mi
7:00 PM70 °FCloudy.12 mph71%30.20 "Hg10 mi
5:53 PM72 °FBroken clouds.14 mph66%30.19 "Hg10 mi
5:00 PM73 °FOvercast.17 mph64%30.19 "Hg10 mi
Weather by CustomWeather, © 2014

See weather overview